Погода в Верхнеднепровске

Украина / Днепропетровская область     48˚38′33″N   34˚20′24″E
темп.,
°C
ветер,
м/с
пор.,
м/с
влажн.,
%
обл.,
%
осадки,
мм/ч
давл.,
гПа
погр.,
м
6 декабря, вс
вс623:00−3˚в713560 0.0 1034428
02:00−3˚в713550 0.0 1034413
05:00−4˚в713550 0.0 1034415
08:00−4˚в813570 0.0 1035433
11:00−2˚в812490 0.0 1035539
14:00−1˚в811550 0.0 1034637
17:00−3˚в713630 0.0 1034573
20:00−4˚в813670 0.0 1034537
7 декабря, пн
пн723:00−5˚в813710 0.0 1034554
02:00−5˚в813700 0.0 1035544
05:00−6˚в813690 0.0 1033544
08:00−6˚в814680 0.0 1033607
11:00−4˚в913600 0.0 1032740
14:00−1˚в913520 0.0 1031787
17:00−3˚в915530 0.0 1031634
20:00−4˚в915590 0.0 1031602
8 декабря, вт
вт823:00−4˚в914660 0.0 1031572
02:00−5˚в814690 0.0 1030585
05:00−5˚в915710 0.0 1029581
08:00−5˚в814720 0.0 1029703
11:00−2˚в8126548 0.0 1029784
14:00в8116227 0.0 1028858
17:00−2˚в813640 0.0 1028565
20:00−3˚в813600 0.0 1028579
9 декабря, ср
ср923:00−3˚в712650 0.0 1028556
02:00−3˚в812720 0.0 1028565
05:00−4˚в8127312 0.0 1028530
08:00−4˚в8127747 0.0 1028531
11:00−2˚вюв7107368 0.0 1028599
14:00в6107173 0.0 1027626
17:00вюв7127492 0.0 1027618
20:00вюв7127696 0.0 1028555
10 декабря, чт
чт1023:00−1˚вюв7118089 0.0 1028499
02:00−1˚вюв7108687 0.0 1028528
05:00−1˚вюв71081100 0.0 1028386
08:00−1˚вюв81183100 0.0 1028348
11:00вюв797976 0.0 1029472
14:00+2˚вюв6107342 0.0 1028543
17:00+1˚вюв612783 0.0 1028446
20:00вюв612788 0.0 1028472